28.03.2024;08:00;134,000;
28.03.2024;07:00;134,000;
28.03.2024;06:00;134,000;
28.03.2024;05:00;134,000;
28.03.2024;04:00;134,000;
28.03.2024;03:00;134,000;
28.03.2024;02:00;134,000;
28.03.2024;01:00;134,000;
28.03.2024;00:00;134,000;
27.03.2024;23:00;134,000;
27.03.2024;22:00;134,000;
27.03.2024;21:00;134,000;
27.03.2024;20:00;134,000;
27.03.2024;19:00;134,000;
27.03.2024;18:00;134,000;
27.03.2024;17:00;134,000;
27.03.2024;16:00;134,000;
27.03.2024;15:00;134,000;
27.03.2024;14:00;134,000;
27.03.2024;13:00;134,000;
27.03.2024;12:00;134,000;
27.03.2024;11:00;134,000;
27.03.2024;10:00;133,000;
27.03.2024;09:00;133,000;
27.03.2024;08:00;133,000;
27.03.2024;07:00;133,000;
27.03.2024;06:00;133,000;
27.03.2024;05:00;134,000;
27.03.2024;04:00;134,000;
27.03.2024;03:00;134,000;
27.03.2024;02:00;133,000;
27.03.2024;01:00;133,000;
27.03.2024;00:00;133,000;
26.03.2024;23:00;133,000;
26.03.2024;22:00;134,000;
26.03.2024;21:00;133,000;
26.03.2024;20:00;134,000;
26.03.2024;19:00;134,000;
26.03.2024;18:00;134,000;
26.03.2024;17:00;134,000;
26.03.2024;16:00;134,000;
26.03.2024;15:00;134,000;
26.03.2024;14:00;134,000;
26.03.2024;13:00;134,000;
26.03.2024;12:00;134,000;
26.03.2024;11:00;134,000;
26.03.2024;10:00;134,000;
26.03.2024;09:00;134,000;
26.03.2024;08:00;133,000;
26.03.2024;07:00;133,000;
26.03.2024;06:00;134,000;
26.03.2024;05:00;134,000;
26.03.2024;04:00;133,000;
26.03.2024;03:00;133,000;
26.03.2024;02:00;133,000;
26.03.2024;01:00;133,000;
26.03.2024;00:00;133,000;
25.03.2024;23:00;133,000;
25.03.2024;22:00;133,000;
25.03.2024;21:00;133,000;
25.03.2024;20:00;133,000;
25.03.2024;19:00;133,000;
25.03.2024;18:00;133,000;
25.03.2024;17:00;133,000;
25.03.2024;16:00;133,000;
25.03.2024;15:00;133,000;
25.03.2024;14:00;133,000;
25.03.2024;13:00;133,000;
25.03.2024;12:00;133,000;
25.03.2024;11:00;133,000;
25.03.2024;10:00;133,000;
25.03.2024;09:00;133,000;
25.03.2024;08:00;133,000;
25.03.2024;07:00;133,000;
25.03.2024;06:00;133,000;
25.03.2024;05:00;133,000;
25.03.2024;04:00;133,000;
25.03.2024;03:00;133,000;
25.03.2024;02:00;133,000;
25.03.2024;01:00;133,000;
25.03.2024;00:00;133,000;
24.03.2024;23:00;133,000;
24.03.2024;22:00;133,000;
24.03.2024;21:00;133,000;
24.03.2024;20:00;133,000;
24.03.2024;19:00;133,000;
24.03.2024;18:00;133,000;
24.03.2024;17:00;133,000;
24.03.2024;16:00;133,000;
24.03.2024;15:00;133,000;
24.03.2024;14:00;133,000;
24.03.2024;13:00;133,000;
24.03.2024;12:00;133,000;
24.03.2024;11:00;133,000;
24.03.2024;10:00;132,000;
24.03.2024;09:00;133,000;
24.03.2024;08:00;132,000;
24.03.2024;07:00;133,000;
24.03.2024;06:00;133,000;
24.03.2024;05:00;132,000;
24.03.2024;04:00;132,000;
24.03.2024;03:00;133,000;
24.03.2024;02:00;133,000;
24.03.2024;01:00;132,000;
24.03.2024;00:00;132,000;
23.03.2024;23:00;132,000;
23.03.2024;22:00;132,000;
23.03.2024;21:00;132,000;
23.03.2024;20:00;132,000;
23.03.2024;19:00;132,000;
23.03.2024;18:00;132,000;
23.03.2024;17:00;132,000;
23.03.2024;16:00;132,000;
23.03.2024;15:00;132,000;
23.03.2024;14:00;132,000;
23.03.2024;13:00;132,000;
23.03.2024;12:00;132,000;
23.03.2024;11:00;133,000;
23.03.2024;10:00;132,000;
23.03.2024;09:00;132,000;
23.03.2024;08:00;132,000;
23.03.2024;07:00;132,000;
23.03.2024;06:00;132,000;
23.03.2024;05:00;132,000;
23.03.2024;04:00;132,000;
23.03.2024;03:00;132,000;
23.03.2024;02:00;132,000;
23.03.2024;01:00;132,000;
23.03.2024;00:00;132,000;
22.03.2024;23:00;132,000;
22.03.2024;22:00;132,000;
22.03.2024;21:00;132,000;
22.03.2024;20:00;132,000;
22.03.2024;19:00;132,000;
22.03.2024;18:00;132,000;
22.03.2024;17:00;132,000;
22.03.2024;16:00;132,000;
22.03.2024;15:00;132,000;
22.03.2024;14:00;132,000;
22.03.2024;13:00;132,000;
22.03.2024;12:00;132,000;
22.03.2024;11:00;132,000;
22.03.2024;10:00;132,000;
22.03.2024;09:00;132,000;
22.03.2024;08:00;131,000;
22.03.2024;07:00;132,000;
22.03.2024;06:00;132,000;
22.03.2024;05:00;132,000;
22.03.2024;04:00;132,000;
22.03.2024;03:00;132,000;
22.03.2024;02:00;132,000;
22.03.2024;01:00;132,000;
22.03.2024;00:00;132,000;
21.03.2024;23:00;132,000;
21.03.2024;22:00;132,000;
21.03.2024;21:00;132,000;
21.03.2024;20:00;132,000;
21.03.2024;19:00;132,000;
21.03.2024;18:00;132,000;
21.03.2024;17:00;132,000;
21.03.2024;16:00;132,000;
21.03.2024;15:00;131,000;
21.03.2024;14:00;132,000;
21.03.2024;13:00;132,000;
21.03.2024;12:00;131,000;
21.03.2024;11:00;131,000;
21.03.2024;10:00;131,000;
21.03.2024;09:00;131,000;
21.03.2024;08:00;131,000;
21.03.2024;07:00;131,000;
21.03.2024;06:00;131,000;
21.03.2024;05:00;131,000;
21.03.2024;04:00;131,000;
21.03.2024;03:00;131,000;
21.03.2024;02:00;131,000;
21.03.2024;01:00;131,000;
21.03.2024;00:00;131,000;
20.03.2024;23:00;131,000;
20.03.2024;22:00;131,000;
20.03.2024;21:00;131,000;
20.03.2024;20:00;131,000;
20.03.2024;19:00;131,000;
20.03.2024;18:00;131,000;
20.03.2024;17:00;131,000;
20.03.2024;16:00;131,000;
20.03.2024;15:00;131,000;
20.03.2024;14:00;131,000;
20.03.2024;13:00;131,000;
20.03.2024;12:00;131,000;
20.03.2024;11:00;131,000;
20.03.2024;10:00;131,000;
20.03.2024;09:00;131,000;
20.03.2024;08:00;131,000;
20.03.2024;07:00;131,000;
20.03.2024;06:00;131,000;
20.03.2024;05:00;131,000;
20.03.2024;04:00;131,000;
20.03.2024;03:00;131,000;
20.03.2024;02:00;131,000;
20.03.2024;01:00;131,000;
20.03.2024;00:00;131,000;
19.03.2024;23:00;131,000;
19.03.2024;22:00;131,000;
19.03.2024;21:00;131,000;
19.03.2024;20:00;131,000;
19.03.2024;19:00;131,000;
19.03.2024;18:00;131,000;
19.03.2024;17:00;131,000;
19.03.2024;16:00;131,000;
19.03.2024;15:00;131,000;
19.03.2024;14:00;131,000;
19.03.2024;13:00;131,000;
19.03.2024;12:00;131,000;
19.03.2024;11:00;131,000;
19.03.2024;10:00;130,000;
19.03.2024;09:00;131,000;
19.03.2024;08:00;130,000;
19.03.2024;07:00;131,000;
19.03.2024;06:00;131,000;
19.03.2024;05:00;131,000;
19.03.2024;04:00;131,000;
19.03.2024;03:00;131,000;
19.03.2024;02:00;131,000;
19.03.2024;01:00;131,000;
19.03.2024;00:00;131,000;
18.03.2024;23:00;131,000;
18.03.2024;22:00;131,000;
18.03.2024;21:00;131,000;
18.03.2024;20:00;131,000;
18.03.2024;19:00;131,000;
18.03.2024;18:00;131,000;
18.03.2024;17:00;131,000;
18.03.2024;16:00;131,000;
18.03.2024;15:00;131,000;
18.03.2024;14:00;131,000;
18.03.2024;13:00;130,000;
18.03.2024;12:00;131,000;
18.03.2024;11:00;131,000;
18.03.2024;10:00;131,000;
18.03.2024;09:00;131,000;
18.03.2024;08:00;130,000;
18.03.2024;07:00;131,000;
18.03.2024;06:00;131,000;
18.03.2024;05:00;130,000;
18.03.2024;04:00;131,000;
18.03.2024;03:00;131,000;
18.03.2024;02:00;130,000;
18.03.2024;01:00;130,000;
18.03.2024;00:00;130,000;
17.03.2024;23:00;130,000;
17.03.2024;22:00;130,000;
17.03.2024;21:00;130,000;
17.03.2024;20:00;130,000;
17.03.2024;19:00;130,000;
17.03.2024;18:00;130,000;
17.03.2024;17:00;130,000;
17.03.2024;16:00;130,000;
17.03.2024;15:00;130,000;
17.03.2024;14:00;130,000;
17.03.2024;13:00;130,000;
17.03.2024;12:00;130,000;
17.03.2024;11:00;130,000;
17.03.2024;10:00;130,000;
17.03.2024;09:00;130,000;
17.03.2024;08:00;130,000;
17.03.2024;07:00;130,000;
17.03.2024;06:00;130,000;
17.03.2024;05:00;130,000;
17.03.2024;04:00;130,000;
17.03.2024;03:00;129,000;
17.03.2024;02:00;129,000;
17.03.2024;01:00;129,000;
17.03.2024;00:00;129,000;
16.03.2024;23:00;128,000;
16.03.2024;22:00;128,000;
16.03.2024;21:00;128,000;
16.03.2024;20:00;128,000;
16.03.2024;19:00;128,000;
16.03.2024;18:00;128,000;
16.03.2024;17:00;128,000;
16.03.2024;16:00;128,000;
16.03.2024;15:00;128,000;
16.03.2024;14:00;128,000;
16.03.2024;13:00;128,000;
16.03.2024;12:00;128,000;
16.03.2024;11:00;128,000;
16.03.2024;10:00;128,000;
16.03.2024;09:00;128,000;
16.03.2024;08:00;128,000;
16.03.2024;07:00;128,000;
16.03.2024;06:00;127,000;
16.03.2024;05:00;127,000;
16.03.2024;04:00;127,000;
16.03.2024;03:00;127,000;
16.03.2024;02:00;127,000;
16.03.2024;01:00;127,000;
16.03.2024;00:00;127,000;
15.03.2024;23:00;127,000;
15.03.2024;22:00;127,000;
15.03.2024;21:00;127,000;
15.03.2024;20:00;127,000;
15.03.2024;19:00;127,000;
15.03.2024;18:00;127,000;
15.03.2024;17:00;127,000;
15.03.2024;16:00;127,000;
15.03.2024;15:00;127,000;
15.03.2024;14:00;127,000;
15.03.2024;13:00;127,000;
15.03.2024;12:00;127,000;
15.03.2024;11:00;127,000;
15.03.2024;10:00;127,000;
15.03.2024;09:00;127,000;
15.03.2024;08:00;127,000;
15.03.2024;07:00;127,000;
15.03.2024;06:00;127,000;
15.03.2024;05:00;127,000;
15.03.2024;04:00;127,000;
15.03.2024;03:00;127,000;
15.03.2024;02:00;127,000;
15.03.2024;01:00;127,000;
15.03.2024;00:00;127,000;
14.03.2024;23:00;127,000;
14.03.2024;22:00;127,000;
14.03.2024;21:00;127,000;
14.03.2024;20:00;127,000;
14.03.2024;19:00;127,000;
14.03.2024;18:00;127,000;
14.03.2024;17:00;127,000;
14.03.2024;16:00;127,000;
14.03.2024;15:00;127,000;
14.03.2024;14:00;127,000;
14.03.2024;13:00;127,000;
14.03.2024;12:00;127,000;
14.03.2024;11:00;127,000;
14.03.2024;10:00;127,000;
14.03.2024;09:00;127,000;
14.03.2024;08:00;127,000;
14.03.2024;07:00;127,000;
14.03.2024;06:00;127,000;
14.03.2024;05:00;127,000;
14.03.2024;04:00;127,000;
14.03.2024;03:00;127,000;
14.03.2024;02:00;127,000;
14.03.2024;01:00;127,000;
14.03.2024;00:00;127,000;
13.03.2024;23:00;127,000;
13.03.2024;22:00;127,000;
13.03.2024;21:00;127,000;
13.03.2024;20:00;127,000;
13.03.2024;19:00;127,000;
13.03.2024;18:00;127,000;
13.03.2024;17:00;127,000;
13.03.2024;16:00;127,000;
13.03.2024;15:00;127,000;
13.03.2024;14:00;127,000;
13.03.2024;13:00;127,000;
13.03.2024;12:00;127,000;
13.03.2024;11:00;127,000;
13.03.2024;10:00;127,000;
13.03.2024;09:00;127,000;
13.03.2024;08:00;127,000;
13.03.2024;07:00;127,000;
13.03.2024;06:00;127,000;
13.03.2024;05:00;127,000;
13.03.2024;04:00;127,000;
13.03.2024;03:00;127,000;
13.03.2024;02:00;127,000;
13.03.2024;01:00;127,000;
13.03.2024;00:00;127,000;
12.03.2024;23:00;127,000;
12.03.2024;22:00;127,000;
12.03.2024;21:00;127,000;
12.03.2024;20:00;127,000;
12.03.2024;19:00;127,000;
12.03.2024;18:00;127,000;
12.03.2024;17:00;127,000;
12.03.2024;16:00;127,000;
12.03.2024;15:00;127,000;
12.03.2024;14:00;128,000;
12.03.2024;13:00;127,000;
12.03.2024;12:00;128,000;
12.03.2024;11:00;127,000;
12.03.2024;10:00;127,000;
12.03.2024;09:00;127,000;
12.03.2024;08:00;127,000;
12.03.2024;07:00;127,000;
12.03.2024;06:00;127,000;
12.03.2024;05:00;127,000;
12.03.2024;04:00;128,000;
12.03.2024;03:00;128,000;
12.03.2024;02:00;128,000;
12.03.2024;01:00;127,000;
12.03.2024;00:00;128,000;
11.03.2024;23:00;127,000;
11.03.2024;22:00;127,000;
11.03.2024;21:00;127,000;
11.03.2024;20:00;127,000;
11.03.2024;19:00;127,000;
11.03.2024;18:00;127,000;
11.03.2024;17:00;128,000;
11.03.2024;16:00;128,000;
11.03.2024;15:00;128,000;
11.03.2024;14:00;128,000;
11.03.2024;13:00;127,000;
11.03.2024;12:00;128,000;
11.03.2024;11:00;128,000;
11.03.2024;10:00;127,000;
11.03.2024;09:00;127,000;
11.03.2024;08:00;127,000;
11.03.2024;07:00;127,000;
11.03.2024;06:00;128,000;
11.03.2024;05:00;128,000;
11.03.2024;04:00;128,000;
11.03.2024;03:00;128,000;
11.03.2024;02:00;128,000;
11.03.2024;01:00;127,000;
11.03.2024;00:00;127,000;
10.03.2024;23:00;128,000;
10.03.2024;22:00;128,000;
10.03.2024;21:00;127,000;
10.03.2024;20:00;127,000;
10.03.2024;19:00;127,000;
10.03.2024;18:00;128,000;
10.03.2024;17:00;127,000;
10.03.2024;16:00;128,000;
10.03.2024;15:00;127,000;
10.03.2024;14:00;127,000;
10.03.2024;13:00;128,000;
10.03.2024;12:00;128,000;
10.03.2024;11:00;128,000;
10.03.2024;10:00;127,000;
10.03.2024;09:00;128,000;
10.03.2024;08:00;127,000;
10.03.2024;07:00;128,000;
10.03.2024;06:00;128,000;
10.03.2024;05:00;128,000;
10.03.2024;04:00;128,000;
10.03.2024;03:00;128,000;
10.03.2024;02:00;128,000;
10.03.2024;01:00;128,000;
10.03.2024;00:00;128,000;
09.03.2024;23:00;128,000;
09.03.2024;22:00;128,000;
09.03.2024;21:00;128,000;
09.03.2024;20:00;128,000;
09.03.2024;19:00;127,000;
09.03.2024;18:00;128,000;
09.03.2024;17:00;128,000;
09.03.2024;16:00;128,000;
09.03.2024;15:00;128,000;
09.03.2024;14:00;128,000;
09.03.2024;13:00;128,000;
09.03.2024;12:00;128,000;
09.03.2024;11:00;128,000;
09.03.2024;10:00;128,000;
09.03.2024;09:00;128,000;
09.03.2024;08:00;127,000;
09.03.2024;07:00;128,000;
09.03.2024;06:00;128,000;
09.03.2024;05:00;128,000;
09.03.2024;04:00;128,000;
09.03.2024;03:00;128,000;
09.03.2024;02:00;128,000;
09.03.2024;01:00;128,000;
09.03.2024;00:00;128,000;
08.03.2024;23:00;128,000;
08.03.2024;22:00;128,000;
08.03.2024;21:00;128,000;
08.03.2024;20:00;128,000;
08.03.2024;19:00;128,000;
08.03.2024;18:00;128,000;
08.03.2024;17:00;128,000;
08.03.2024;16:00;128,000;
08.03.2024;15:00;128,000;
08.03.2024;14:00;128,000;
08.03.2024;13:00;128,000;
08.03.2024;12:00;128,000;
08.03.2024;11:00;128,000;
08.03.2024;10:00;128,000;
08.03.2024;09:00;128,000;
08.03.2024;08:00;127,000;
08.03.2024;07:00;128,000;
08.03.2024;06:00;128,000;
08.03.2024;05:00;128,000;
08.03.2024;04:00;128,000;
08.03.2024;03:00;128,000;
08.03.2024;02:00;128,000;
08.03.2024;01:00;128,000;
08.03.2024;00:00;128,000;
07.03.2024;23:00;128,000;
07.03.2024;22:00;128,000;
07.03.2024;21:00;128,000;
07.03.2024;20:00;128,000;
07.03.2024;19:00;128,000;
07.03.2024;18:00;128,000;
07.03.2024;17:00;128,000;
07.03.2024;16:00;128,000;
07.03.2024;15:00;128,000;
07.03.2024;14:00;128,000;
07.03.2024;13:00;128,000;
07.03.2024;12:00;128,000;
07.03.2024;11:00;128,000;
07.03.2024;10:00;128,000;
07.03.2024;09:00;128,000;
07.03.2024;08:00;128,000;
07.03.2024;07:00;128,000;
07.03.2024;06:00;128,000;
07.03.2024;05:00;128,000;
07.03.2024;04:00;128,000;
07.03.2024;03:00;128,000;
07.03.2024;02:00;128,000;
07.03.2024;01:00;128,000;
07.03.2024;00:00;128,000;
06.03.2024;23:00;128,000;
06.03.2024;22:00;128,000;
06.03.2024;21:00;128,000;
06.03.2024;20:00;128,000;
06.03.2024;19:00;128,000;
06.03.2024;18:00;128,000;
06.03.2024;17:00;128,000;
06.03.2024;16:00;128,000;
06.03.2024;15:00;128,000;
06.03.2024;14:00;128,000;
06.03.2024;13:00;128,000;
06.03.2024;12:00;128,000;
06.03.2024;11:00;128,000;
06.03.2024;10:00;128,000;
06.03.2024;09:00;128,000;
06.03.2024;08:00;127,000;
06.03.2024;07:00;128,000;
06.03.2024;06:00;128,000;
06.03.2024;05:00;128,000;
06.03.2024;04:00;128,000;
06.03.2024;03:00;128,000;
06.03.2024;02:00;127,000;
06.03.2024;01:00;128,000;
06.03.2024;00:00;128,000;
05.03.2024;23:00;128,000;
05.03.2024;22:00;128,000;
05.03.2024;21:00;128,000;
05.03.2024;20:00;128,000;
05.03.2024;19:00;128,000;
05.03.2024;18:00;128,000;
05.03.2024;17:00;128,000;
05.03.2024;16:00;128,000;
05.03.2024;15:00;128,000;
05.03.2024;14:00;128,000;
05.03.2024;13:00;128,000;
05.03.2024;12:00;128,000;
05.03.2024;11:00;128,000;
05.03.2024;10:00;128,000;
05.03.2024;09:00;128,000;
05.03.2024;08:00;127,000;
05.03.2024;07:00;128,000;
05.03.2024;06:00;128,000;
05.03.2024;05:00;128,000;
05.03.2024;04:00;128,000;
05.03.2024;03:00;128,000;
05.03.2024;02:00;128,000;
05.03.2024;01:00;128,000;
05.03.2024;00:00;128,000;
04.03.2024;23:00;128,000;
04.03.2024;22:00;128,000;
04.03.2024;21:00;128,000;
04.03.2024;20:00;128,000;
04.03.2024;19:00;128,000;
04.03.2024;18:00;128,000;
04.03.2024;17:00;128,000;
04.03.2024;16:00;128,000;
04.03.2024;15:00;128,000;
04.03.2024;14:00;128,000;
04.03.2024;13:00;128,000;
04.03.2024;12:00;128,000;
04.03.2024;11:00;128,000;
04.03.2024;10:00;128,000;
04.03.2024;09:00;128,000;
04.03.2024;08:00;127,000;
04.03.2024;07:00;128,000;
04.03.2024;06:00;127,000;
04.03.2024;05:00;127,000;
04.03.2024;04:00;128,000;
04.03.2024;03:00;128,000;
04.03.2024;02:00;128,000;
04.03.2024;01:00;128,000;
04.03.2024;00:00;128,000;
03.03.2024;23:00;128,000;
03.03.2024;22:00;128,000;
03.03.2024;21:00;128,000;
03.03.2024;20:00;128,000;
03.03.2024;19:00;128,000;
03.03.2024;18:00;128,000;
03.03.2024;17:00;128,000;
03.03.2024;16:00;128,000;
03.03.2024;15:00;128,000;
03.03.2024;14:00;128,000;
03.03.2024;13:00;128,000;
03.03.2024;12:00;128,000;
03.03.2024;11:00;128,000;
03.03.2024;10:00;128,000;
03.03.2024;09:00;128,000;
03.03.2024;08:00;127,000;
03.03.2024;07:00;127,000;
03.03.2024;06:00;128,000;
03.03.2024;05:00;128,000;
03.03.2024;04:00;128,000;
03.03.2024;03:00;128,000;
03.03.2024;02:00;128,000;
03.03.2024;01:00;128,000;
03.03.2024;00:00;128,000;
02.03.2024;23:00;128,000;
02.03.2024;22:00;128,000;
02.03.2024;21:00;128,000;
02.03.2024;20:00;128,000;
02.03.2024;19:00;128,000;
02.03.2024;18:00;128,000;
02.03.2024;17:00;128,000;
02.03.2024;16:00;128,000;
02.03.2024;15:00;128,000;
02.03.2024;14:00;128,000;
02.03.2024;13:00;128,000;
02.03.2024;12:00;127,000;
02.03.2024;11:00;128,000;
02.03.2024;10:00;128,000;
02.03.2024;09:00;127,000;
02.03.2024;08:00;127,000;
02.03.2024;07:00;127,000;
02.03.2024;06:00;127,000;
02.03.2024;05:00;127,000;
02.03.2024;04:00;127,000;
02.03.2024;03:00;128,000;
02.03.2024;02:00;128,000;
02.03.2024;01:00;128,000;
02.03.2024;00:00;127,000;
01.03.2024;23:00;127,000;
01.03.2024;22:00;128,000;
01.03.2024;21:00;127,000;
01.03.2024;20:00;127,000;
01.03.2024;19:00;127,000;
01.03.2024;18:00;127,000;
01.03.2024;17:00;128,000;
01.03.2024;16:00;128,000;
01.03.2024;15:00;127,000;
01.03.2024;14:00;127,000;
01.03.2024;13:00;127,000;
01.03.2024;12:00;127,000;
01.03.2024;11:00;127,000;
01.03.2024;10:00;127,000;
01.03.2024;09:00;127,000;
01.03.2024;08:00;127,000;
01.03.2024;07:00;127,000;
01.03.2024;06:00;127,000;
01.03.2024;05:00;128,000;
01.03.2024;04:00;127,000;
01.03.2024;03:00;127,000;
01.03.2024;02:00;127,000;
01.03.2024;01:00;127,000;
01.03.2024;00:00;127,000;
29.02.2024;23:00;127,000;
29.02.2024;22:00;127,000;
29.02.2024;21:00;127,000;
29.02.2024;20:00;127,000;
29.02.2024;19:00;127,000;
29.02.2024;18:00;127,000;
29.02.2024;17:00;127,000;
29.02.2024;16:00;127,000;
29.02.2024;15:00;127,000;
29.02.2024;14:00;127,000;
29.02.2024;13:00;127,000;
29.02.2024;12:00;127,000;
29.02.2024;11:00;127,000;
29.02.2024;10:00;127,000;
29.02.2024;09:00;127,000;
29.02.2024;08:00;127,000;
29.02.2024;07:00;127,000;
29.02.2024;06:00;127,000;
29.02.2024;05:00;127,000;
29.02.2024;04:00;127,000;
29.02.2024;03:00;127,000;
29.02.2024;02:00;127,000;
29.02.2024;01:00;127,000;
29.02.2024;00:00;127,000;
28.02.2024;23:00;127,000;
28.02.2024;22:00;127,000;
28.02.2024;21:00;127,000;
28.02.2024;20:00;127,000;
28.02.2024;19:00;127,000;
28.02.2024;18:00;127,000;
28.02.2024;17:00;127,000;
28.02.2024;16:00;127,000;
28.02.2024;15:00;127,000;
28.02.2024;14:00;127,000;
28.02.2024;13:00;127,000;
28.02.2024;12:00;127,000;
28.02.2024;11:00;127,000;
28.02.2024;10:00;127,000;
28.02.2024;09:00;127,000;
28.02.2024;08:00;127,000;
28.02.2024;07:00;127,000;
28.02.2024;06:00;127,000;
28.02.2024;05:00;127,000;
28.02.2024;04:00;127,000;
28.02.2024;03:00;127,000;
28.02.2024;02:00;127,000;
28.02.2024;01:00;127,000;
28.02.2024;00:00;127,000;
27.02.2024;23:00;127,000;
27.02.2024;22:00;127,000;
27.02.2024;21:00;127,000;
27.02.2024;20:00;127,000;
27.02.2024;19:00;127,000;
27.02.2024;18:00;127,000;
27.02.2024;17:00;127,000;
27.02.2024;16:00;127,000;
27.02.2024;15:00;127,000;
27.02.2024;14:00;127,000;
27.02.2024;13:00;127,000;
27.02.2024;12:00;127,000;
27.02.2024;11:00;127,000;
27.02.2024;10:00;127,000;
27.02.2024;09:00;127,000;
27.02.2024;08:00;126,000;
27.02.2024;07:00;127,000;
27.02.2024;06:00;126,000;
27.02.2024;05:00;127,000;
27.02.2024;04:00;127,000;
27.02.2024;03:00;127,000;
27.02.2024;02:00;127,000;
27.02.2024;01:00;126,000;
27.02.2024;00:00;126,000;
26.02.2024;23:00;126,000;
26.02.2024;22:00;126,000;
26.02.2024;21:00;126,000;
26.02.2024;20:00;126,000;
26.02.2024;19:00;126,000;
26.02.2024;18:00;126,000;
26.02.2024;17:00;126,000;
26.02.2024;16:00;126,000;
26.02.2024;15:00;126,000;
26.02.2024;14:00;126,000;
26.02.2024;13:00;126,000;
26.02.2024;12:00;126,000;
26.02.2024;11:00;126,000;
26.02.2024;10:00;126,000;
26.02.2024;09:00;125,000;
26.02.2024;08:00;126,000;
26.02.2024;07:00;126,000;
26.02.2024;06:00;126,000;
26.02.2024;05:00;126,000;
26.02.2024;04:00;126,000;
26.02.2024;03:00;126,000;
26.02.2024;02:00;126,000;
26.02.2024;01:00;126,000;
26.02.2024;00:00;126,000;
25.02.2024;23:00;126,000;
25.02.2024;22:00;125,000;
25.02.2024;21:00;125,000;
25.02.2024;20:00;126,000;
25.02.2024;19:00;126,000;
25.02.2024;18:00;126,000;
25.02.2024;17:00;126,000;
25.02.2024;16:00;125,000;
25.02.2024;15:00;125,000;
25.02.2024;14:00;126,000;
25.02.2024;13:00;125,000;
25.02.2024;12:00;125,000;
25.02.2024;11:00;125,000;
25.02.2024;10:00;125,000;
25.02.2024;09:00;125,000;
25.02.2024;08:00;125,000;
25.02.2024;07:00;125,000;
25.02.2024;06:00;125,000;
25.02.2024;05:00;125,000;
25.02.2024;04:00;125,000;
25.02.2024;03:00;125,000;
25.02.2024;02:00;125,000;
25.02.2024;01:00;125,000;
25.02.2024;00:00;124,000;
24.02.2024;23:00;124,000;
24.02.2024;22:00;124,000;
24.02.2024;21:00;124,000;
24.02.2024;20:00;124,000;
24.02.2024;19:00;124,000;
24.02.2024;18:00;123,000;
24.02.2024;17:00;123,000;
24.02.2024;16:00;124,000;
24.02.2024;15:00;123,000;
24.02.2024;14:00;123,000;
24.02.2024;13:00;123,000;
24.02.2024;12:00;123,000;
24.02.2024;11:00;123,000;
24.02.2024;10:00;123,000;
24.02.2024;09:00;123,000;
24.02.2024;08:00;123,000;
24.02.2024;07:00;123,000;
24.02.2024;06:00;123,000;
24.02.2024;05:00;123,000;
24.02.2024;04:00;123,000;
24.02.2024;03:00;123,000;
24.02.2024;02:00;123,000;
24.02.2024;01:00;123,000;
24.02.2024;00:00;124,000;
23.02.2024;23:00;123,000;
23.02.2024;22:00;124,000;
23.02.2024;21:00;123,000;
23.02.2024;20:00;123,000;
23.02.2024;19:00;123,000;
23.02.2024;18:00;123,000;
23.02.2024;17:00;123,000;
23.02.2024;16:00;124,000;
23.02.2024;15:00;124,000;
23.02.2024;14:00;124,000;
23.02.2024;13:00;123,000;
23.02.2024;12:00;123,000;
23.02.2024;11:00;124,000;
23.02.2024;10:00;123,000;
23.02.2024;09:00;123,000;
23.02.2024;08:00;123,000;
23.02.2024;07:00;123,000;
23.02.2024;06:00;123,000;
23.02.2024;05:00;123,000;
23.02.2024;04:00;123,000;
23.02.2024;03:00;123,000;
23.02.2024;02:00;123,000;
23.02.2024;01:00;123,000;
23.02.2024;00:00;123,000;
22.02.2024;23:00;123,000;
22.02.2024;22:00;123,000;
22.02.2024;21:00;123,000;
22.02.2024;20:00;123,000;
22.02.2024;19:00;123,000;
22.02.2024;18:00;123,000;
22.02.2024;17:00;123,000;
22.02.2024;16:00;123,000;
22.02.2024;15:00;123,000;
22.02.2024;14:00;123,000;
22.02.2024;13:00;123,000;
22.02.2024;12:00;123,000;
22.02.2024;11:00;123,000;
22.02.2024;10:00;123,000;
22.02.2024;09:00;123,000;
22.02.2024;08:00;122,000;
22.02.2024;07:00;123,000;
22.02.2024;06:00;123,000;
22.02.2024;05:00;123,000;
22.02.2024;04:00;123,000;
22.02.2024;03:00;123,000;
22.02.2024;02:00;123,000;
22.02.2024;01:00;123,000;
22.02.2024;00:00;123,000;
21.02.2024;23:00;123,000;
21.02.2024;22:00;123,000;
21.02.2024;21:00;123,000;
21.02.2024;20:00;123,000;
21.02.2024;19:00;123,000;
21.02.2024;18:00;123,000;
21.02.2024;17:00;123,000;
21.02.2024;16:00;123,000;
21.02.2024;15:00;123,000;
21.02.2024;14:00;123,000;
21.02.2024;13:00;123,000;
21.02.2024;12:00;123,000;
21.02.2024;11:00;123,000;
21.02.2024;10:00;123,000;
21.02.2024;09:00;123,000;
21.02.2024;08:00;122,000;
21.02.2024;07:00;123,000;
21.02.2024;06:00;123,000;
21.02.2024;05:00;123,000;
21.02.2024;04:00;123,000;
21.02.2024;03:00;123,000;
21.02.2024;02:00;123,000;
21.02.2024;01:00;123,000;
21.02.2024;00:00;123,000;
20.02.2024;23:00;123,000;
20.02.2024;22:00;123,000;
20.02.2024;21:00;123,000;
20.02.2024;20:00;123,000;
20.02.2024;19:00;123,000;
20.02.2024;18:00;123,000;
20.02.2024;17:00;123,000;
20.02.2024;16:00;123,000;
20.02.2024;15:00;123,000;
20.02.2024;14:00;123,000;
20.02.2024;13:00;123,000;
20.02.2024;12:00;123,000;
20.02.2024;11:00;123,000;
20.02.2024;10:00;123,000;
20.02.2024;09:00;123,000;